sat.trackr.live / text

‹ back to catalog

TURKSAT 5B

NORAD 50212 · 2021-126A

PAYLOAD ACTIVE UNKNOWN

§ Identity

Operator
Country
TURK
Launch date
2021-12-19
Launch site
AFETR
Launch vehicle
Mass (kg)
RCS (m²)

Purposes: comms

External: N2YO · Heavens-Above · Gunter

§ Orbital elements

Epoch: 2026-09-20T03:26:04.462080Z

Period
1,436.07 min
Inclination
0.0745°
Eccentricity
0.0001790
Mean motion
1.00273360 rev/d
Perigee alt
35,778.6 km
Apogee alt
35,793.7 km
Semi-major
42,164.3 km
B*
0.0000e+0
RAAN
334.5075°
Arg perigee
325.7455°
Mean anomaly
152.2998°
Rev number
1,725

§ Raw data

TURKSAT 5B1 50212U 21126A   26263.14310720  .00000142  00000+0  00000+0 0  99942 50212   0.0745 334.5075 0001790 325.7455 152.2998  1.00273360 17256

JSON: /api/v1/satellites/50212 · /tle

For live sub-satellite position, see the globe view (requires WebGL).

§ Visibility from observer

Set your observer location to see the next 7 days of passes ≥ 10°. The values pass through the URL so the page stays shareable.

No JS? Fill the form by hand. The geolocation button needs JavaScript.